Weather History for KCPW - May, 2012

Change the Weather History Date:

Thursday, May 24, 2012

  Actual Average (KALS) Record (KALS)
Temperature  
Mean Temperature 37 °F 54 °F  
Max Temperature 42 °F 72 °F 85 °F (2005)
Min Temperature 32 °F 36 °F 22 °F (1975)
Degree Days  
Heating Degree Days 28 11  
Month to date heating degree days 354  
Since 1 July heating degree days 8354  
Cooling Degree Days 0 0  
Month to date cooling degree days 0  
Year to date cooling degree days 0  
Moisture  
Dew Point 14 °F    
Average Humidity 42    
Maximum Humidity 51    
Minimum Humidity 31    
Precipitation  
Precipitation 0.00 in 0.02 in 0.84 in (1959)
Month to date precipitation 0.46  
Year to date precipitation 2.10  
Snow  
Snow 0.00 in 0.00 in 0.00 in (2002)
Month to date snowfall 0.9  
Since 1 July snowfall 27.6  
Snow Depth -    
Sea Level Pressure  
Sea Level Pressure 29.94 in    
Wind  
Wind Speed 25 mph (SW)    
Max Wind Speed 31 mph    
Max Gust Speed 64 mph    
Visibility 10 miles    
Events      
T = Trace of Precipitation, MM = Missing Value Source: NWS Daily Summary

Daily Weather History Graph

Daily Weather History Graph

Search for Another Location

Airport or City:

Trip Planner

Search our weather history database for the weather conditions in past years. The results will help you decide how hot, cold, wet, or windy it might be!

Date:

Astronomy

May. 24, 2012 Rise Set
Actual Time 5:51 AM MDT 8:17 PM MDT
Civil Twilight 5:21 AM MDT 8:47 PM MDT
Nautical Twilight 4:44 AM MDT 9:24 PM MDT
Astronomical Twilight 4:03 AM MDT 10:05 PM MDT
Moon 8:53 AM MDT (5/24) 11:20 PM MDT (5/24)
Length of Visible Light 15h 25m
Length of Day
14h 25m
Waxing Crescent, 13% of the Moon is Illuminated
May 24
Waxing Crescent
May 28
First Quarter
Jun 4
Full
Jun 11
Last Quarter
Jun 19
New

Hourly Weather History & Observations

Time (MDT) Temp. Windchill Dew Point Humidity Pressure Visibility Wind Dir Wind Speed Gust Speed Precip Events Conditions
12:15 AM 42.8 °F 32.3 °F 14.0 °F 31% 29.90 in 10.0 mi WSW 29.9 mph 55.2 mph N/A   Overcast
12:35 AM 41.0 °F - 12.2 °F 31% 29.91 in 10.0 mi North - - N/A   Scattered Clouds
12:55 AM 41.0 °F 30.9 °F 12.2 °F 31% 29.92 in 10.0 mi SW 24.2 mph 44.9 mph N/A   Scattered Clouds
1:15 AM 39.2 °F 27.2 °F 12.2 °F 33% 29.91 in 10.0 mi SW 31.1 mph 50.6 mph N/A   Mostly Cloudy
1:35 AM 39.2 °F 27.8 °F 12.2 °F 33% 29.92 in 10.0 mi SW 27.6 mph 64.4 mph N/A   Overcast
1:55 AM 37.4 °F 24.8 °F 12.2 °F 36% 29.91 in 10.0 mi WSW 31.1 mph 46.0 mph N/A   Overcast
2:15 AM 37.4 °F 25.0 °F 12.2 °F 36% 29.92 in 10.0 mi SW 29.9 mph 51.8 mph N/A   Overcast
2:35 AM 35.6 °F - 12.2 °F 38% 29.93 in 10.0 mi North - - N/A   Overcast
2:55 AM 35.6 °F 23.2 °F 12.2 °F 38% 29.92 in 10.0 mi SW 26.5 mph 36.8 mph N/A   Overcast
3:15 AM 35.6 °F 24.2 °F 12.2 °F 38% 29.92 in 10.0 mi SW 21.9 mph 38.0 mph N/A   Mostly Cloudy
3:35 AM 33.8 °F 23.2 °F 12.2 °F 41% 29.91 in 10.0 mi SSW 17.3 mph 43.7 mph N/A   Scattered Clouds
3:55 AM 33.8 °F 21.6 °F 12.2 °F 41% 29.91 in 10.0 mi SSW 23.0 mph 48.3 mph N/A   Scattered Clouds
4:15 AM 33.8 °F 21.3 °F 12.2 °F 41% 29.91 in 10.0 mi SW 24.2 mph 41.4 mph N/A   Mostly Cloudy
4:35 AM 33.8 °F 20.8 °F 12.2 °F 41% 29.91 in 10.0 mi SSW 26.5 mph 40.3 mph N/A   Scattered Clouds
4:55 AM 33.8 °F 20.5 °F 12.2 °F 41% 29.92 in 10.0 mi SW 27.6 mph 43.7 mph N/A   Mostly Cloudy
5:15 AM 32.0 °F 20.5 °F 12.2 °F 44% 29.92 in 10.0 mi SSW 18.4 mph 36.8 mph N/A   Overcast
5:35 AM 32.0 °F 19.2 °F 12.2 °F 44% 29.92 in 10.0 mi SSW 23.0 mph 40.3 mph N/A   Overcast
5:55 AM 32.0 °F 20.1 °F 14.0 °F 48% 29.93 in 10.0 mi SSW 19.6 mph 35.7 mph N/A   Overcast
6:15 AM 32.0 °F 20.8 °F 14.0 °F 48% 29.94 in 10.0 mi SSW 17.3 mph 35.7 mph N/A   Overcast
6:35 AM 32.0 °F 19.8 °F 14.0 °F 48% 29.95 in 10.0 mi SSW 20.7 mph 34.5 mph N/A   Overcast
6:55 AM 32.0 °F 20.5 °F 14.0 °F 48% 29.96 in 10.0 mi SSW 18.4 mph 31.1 mph N/A   Overcast
7:15 AM 32.0 °F 19.8 °F 14.0 °F 48% 29.96 in 10.0 mi SSW 20.7 mph 32.2 mph N/A   Overcast
7:35 AM 32.0 °F 20.1 °F 14.0 °F 48% 29.97 in 10.0 mi SW 19.6 mph 32.2 mph N/A   Overcast
7:55 AM 32.0 °F 19.8 °F 14.0 °F 48% 29.97 in 10.0 mi SW 20.7 mph 36.8 mph N/A   Overcast
8:15 AM 32.0 °F 20.1 °F 15.8 °F 51% 29.97 in 10.0 mi SW 19.6 mph 32.2 mph N/A   Overcast
8:31 AM 32.0 °F 20.5 °F 15.8 °F 51% 29.97 in 10.0 mi SW 18.4 mph 36.8 mph N/A   Overcast
8:52 AM 33.8 °F 23.9 °F 15.8 °F 48% 29.97 in 10.0 mi SSW 15.0 mph 36.8 mph N/A   Mostly Cloudy
9:11 AM 35.6 °F - 15.8 °F 44% 29.98 in 10.0 mi North - - N/A   Scattered Clouds
9:31 AM 35.6 °F 26.6 °F 17.6 °F 48% 29.99 in 10.0 mi SW 13.8 mph 38.0 mph N/A   Mostly Cloudy
9:51 AM 35.6 °F 24.0 °F 17.6 °F 48% 30.00 in 10.0 mi SW 23.0 mph 34.5 mph N/A   Overcast
10:06 AM 35.6 °F 24.2 °F 17.6 °F 48% 30.00 in 10.0 mi SW 21.9 mph 34.5 mph N/A   Overcast